Вернуться в каталог

COSMOS 2251 DEB

АктивенLEO
NORAD 34433·DEBRIS·🇷🇺 Russia

Запущен Jun 16, 1993 с Plesetsk Cosmodrome

Loading…

Ближайшие Пролёты (ближайшие 24 часа)

TLE

СвежийSource: Space-Track

Эпоха: Sep 14, 2026, 08:21 UTC

1 34433U 93036SA  26257.34794642  .00001258  00000-0  60520-3 0  9991
2 34433  74.0095  26.1718 0149387 101.1985 260.5990 14.14086785898444

Отслеживайте COSMOS 2251 DEB в реальном времени с AllMySat

Download on the App Store